This is the latest recevied weather packets stored in our database for station/object KD5UMO-1. If no packets are shown the sender has not sent any weather packets the latest 10 day(s).
| Time | Temp. | Humidity | Pressure | Rain* | Wind** | Luminosity | Snow |
|---|---|---|---|---|---|---|---|
| 1777230444 | 28.33° C | 69% | 1007.7 hPa | 0 mm | - | 432 W/m² | - |
| 1777230141 | 28.33° C | 69% | 1007.6 hPa | 0 mm | - | 454 W/m² | - |
| 1777229838 | 27.78° C | 71% | 1007.7 hPa | 0 mm | - | 603 W/m² | - |
| 1777229535 | 27.78° C | 70% | 1007.8 hPa | 0 mm | - | 425 W/m² | - |
| 1777229232 | 27.78° C | 70% | 1007.9 hPa | 0 mm | - | 517 W/m² | - |
| 1777228929 | 27.22° C | 72% | 1008 hPa | 0 mm | - | 405 W/m² | - |
| 1777228624 | 27.22° C | 72% | 1008.2 hPa | 0 mm | - | 294 W/m² | - |
| 1777228321 | 27.22° C | 72% | 1008.4 hPa | 0 mm | - | 254 W/m² | - |
| 1777228017 | 27.22° C | 73% | 1008.5 hPa | 0 mm | - | 220 W/m² | - |
| 1777227716 | 27.22° C | 72% | 1008.3 hPa | 0 mm | - | 203 W/m² | - |
| 1777227412 | 27.78° C | 71% | 1008.4 hPa | 0 mm | - | 505 W/m² | - |
| 1777227109 | 27.22° C | 73% | 1008.5 hPa | 0 mm | - | 277 W/m² | - |
| 1777226805 | 27.22° C | 73% | 1008.6 hPa | 0 mm | - | 248 W/m² | - |
| 1777226504 | 27.78° C | 72% | 1008.4 hPa | 0 mm | - | 382 W/m² | - |
| 1777226200 | 27.22° C | 74% | 1008.5 hPa | 0 mm | - | 571 W/m² | - |
| 1777225897 | 26.67° C | 75% | 1008.6 hPa | 0 mm | - | 468 W/m² | - |
| 1777225592 | 26.11° C | 76% | 1008.7 hPa | 0 mm | - | 274 W/m² | - |
| 1777225290 | 26.67° C | 76% | 1008.8 hPa | 0 mm | - | 271 W/m² | - |
| 1777224986 | 26.11° C | 77% | 1008.9 hPa | 0 mm | - | 225 W/m² | - |
| 1777224684 | 26.11° C | 77% | 1008.7 hPa | 0 mm | - | 212 W/m² | - |
| 1777224384 | 26.67° C | 76% | 1008.7 hPa | 0 mm | - | 208 W/m² | - |
| 1777224080 | 26.11° C | 76% | 1008.7 hPa | 0 mm | - | 267 W/m² | - |
| 1777223777 | 26.67° C | 76% | 1008.9 hPa | 0 mm | - | 151 W/m² | - |
| 1777223473 | 26.67° C | 76% | 1008.7 hPa | 0 mm | - | 234 W/m² | - |
| 1777223171 | 26.67° C | 75% | 1008.9 hPa | 0 mm | - | 185 W/m² | - |
* Rain latest hour (hover to see other rain measurements)
** Current wind speed in m/s (hover to see current wind gust speed)